Location: Dead Woman Crossing
(43.5369°N, 106.3228°W)
Time: 15:38:31
(UTC+00:00)

O/OREOS (USA 219) - Pass Details

Date: 05 July 2022
Orbit: 621 x 646 km, 72.0° (Epoch: 22 May)

Event Time Altitude Azimuth Distance (km) Brightness Sun altitude
Rises 07:02:42 0° 333° (NNW) 2,965 ? -23.7°
Reaches altitude 10° 07:05:00 10° 329° (NNW) 2,052 ? -23.7°
Enters shadow 07:09:30 59° 254° (WSW) 749 ? -23.7°
